Location: Peterborough
(44.3091°N, 78.3197°W)
Time: 15:52:06
(UTC-04:00)

Transit 4A - Pass Details

Date: 23 March 2023
Orbit: 864 x 980 km, 66.8° (Epoch: 04 June)

Event Time Altitude Azimuth Distance (km) Brightness Sun altitude
Rises 10:17:20 0° 269° (W) 3,452 10.5 30.9°
Reaches altitude 10° 10:20:50 10° 290° (WNW) 2,529 9.8 31.4°
Maximum altitude 10:24:23 16° 328° (NNW) 2,135 9.5 31.9°
Drops below altitude 10° 10:27:59 10° 6° (N) 2,573 10.0 32.4°
Sets 10:31:37 0° 27° (NNE) 3,540 10.9 33.0°
